Regional Weather Roundup
Issued by NWS Little Rock, AR

Home | Current Version | Previous Version | Text Only | Print | Product List | Glossary On
Versions: 1 2 3 4 5 6 7 8 9 10 11 12 13 14 15 16 17 18 19 20 21 22 23 24 25 26 27 28 29 30 31 32
000
ASUS44 KLZK 230105
RWRLZK

WEATHER ROUNDUP FOR ARKANSAS
NATIONAL WEATHER SERVICE LITTLE ROCK AR
700 PM CST SUN JAN 22 2017

NOTE: "FAIR" INDICATES FEW OR NO CLOUDS BELOW 12,000 FEET WITH NO
SIGNIFICANT WEATHER AND/OR OBSTRUCTIONS TO VISIBILITY.

ARZ001-003-010-029-230200-
NORTHWEST ARKANSAS

CITY           SKY/WX    TMP DP  RH WIND       PRES   REMARKS
FAYETTEVILLE   CLOUDY    45  42  89 NW13      29.73R
FORT SMITH     CLOUDY    50  41  71 NW16G28   29.74R
HARRISON       CLOUDY    45  42  89 NW13G21   29.66R
BENTONVILLE    CLOUDY   N/A N/A N/A NW12G18   29.74R
ROGERS         CLOUDY    45  40  82 NW15      29.73R
SILOAM SPGS    CLOUDY    45  39  81 N16G23    29.75R
HIGHFILL       MOCLDY    44  41  89 NW14G22   29.74R
SPRINGDALE     CLOUDY    45  41  87 NW14G21   29.74R
$$

ARZ004-005-016-230200-
NORTH CENTRAL ARKANSAS

CITY           SKY/WX    TMP DP  RH WIND       PRES   REMARKS
BATESVILLE     CLOUDY    48  43  81 NW12      29.56R
FLIPPIN        CLOUDY    46  39  76 NW12      29.62R
MTN HOME       CLOUDY    46  43  89 VRB7G16   29.62R
$$

ARZ040-041-230200-
WEST CENTRAL ARKANSAS

CITY           SKY/WX    TMP DP  RH WIND       PRES   REMARKS
MENA           CLOUDY    52  48  87 W14G25    29.70R
MOUNT IDA      CLOUDY    53  45  74 NW13G25   29.63R
$$

ARZ009-017-025-026-028-230200-
NORTHEAST ARKANSAS

CITY           SKY/WX    TMP DP  RH WIND       PRES   REMARKS
CORNING        CLOUDY    55  50  82 N20G25    29.50R
JONESBORO      CLOUDY    54  51  90 NW16G25   29.46R
NEWPORT        CLOUDY    51  48  89 NW24G30     N/A
WALNUT RIDGE   PTCLDY    52  46  82 NW23G29   29.49R
BLYTHEVILLE    CLOUDY    57  54  89 N26       29.42R
$$

ARZ022-023-033-042-044-230200-
CENTRAL ARKANSAS

CITY           SKY/WX    TMP DP  RH WIND       PRES   REMARKS
LITTLE ROCK    CLOUDY    53  49  86 NW18G29   29.55R
N LITTLE ROCK    N/A     52  48  84 N13G24    29.57R
JACKSONVILLE   CLOUDY    54  49  83 NW12G28   29.54R
SEARCY         CLOUDY    52  48  86 NW17G26   29.54R
HOT SPRINGS    CLOUDY    54  46  74 N12G23    29.62R
RUSSELLVILLE   CLOUDY    53  44  71 NW12G20   29.63R
CLINTON        CLOUDY    52  46  82 NW9G16    29.59R
$$

ARZ036-230200-
EAST ARKANSAS

CITY           SKY/WX    TMP DP  RH WIND       PRES   REMARKS
WEST MEMPHIS   LGT RAIN  57  57 100 N12G22    29.39R
$$

ARZ050-053-066-070-073-230200-
SOUTHWEST ARKANSAS

CITY           SKY/WX    TMP DP  RH WIND       PRES   REMARKS
ARKADELPHIA    CLOUDY    56  49  77 NW13G24     N/A
CAMDEN         CLOUDY    55  50  82 NW8G18    29.57R
TEXARKANA      CLOUDY    53  47  79 NW20G26   29.67R
EL DORADO        N/A    N/A N/A N/A MISG      29.57R
DE QUEEN       PTCLDY    52  44  74 NW18G29   29.69R
$$

ARZ056-057-069-230200-
SOUTHEAST ARKANSAS

CITY           SKY/WX    TMP DP  RH WIND       PRES   REMARKS
PINE BLUFF     CLOUDY    55  50  83 NW22G29   29.51R
STUTTGART      CLOUDY    55  46  71 NW23G29   29.48R
MONTICELLO     LGT RAIN  55  52  89 NW9G18    29.49R

$$






USA.gov is the U.S. government's official web portal to all federal, state and local government web resources and services.